Location: Hermaringen
(48.5952°N, 10.2585°E)
Time: 21:37:04
(UTC+00:00)

Altair - Pass Details

Date: 21 February 2026
Orbit: 1502 x 1682 km, 47.2° (Epoch: 10 March)

Event Time Altitude Azimuth Distance (km) Brightness Sun altitude
Exits shadow 03:53:15 33° 225° (SW) 2,336 8.0 -24.3°
Maximum altitude 03:57:48 64° 156° (SSE) 1,659 7.6 -23.5°
Drops below altitude 10° 04:07:05 10° 78° (ENE) 3,751 10.7 -22.0°
Sets 04:10:13 0° 76° (ENE) 4,760 11.6 -21.5°
